This is the latest recevied weather packets stored in our database for station/object N6GPM. If no packets are shown the sender has not sent any weather packets the latest 10 day(s).
| Time | Temp. | Humidity | Pressure | Rain* | Wind** | Luminosity | Snow |
|---|---|---|---|---|---|---|---|
| 1788273411 | 18.89° C | 73% | 1019.6 hPa | 0 mm | - | 147 W/m² | - |
| 1788273108 | 18.89° C | 72% | 1019.3 hPa | 0 mm | - | 129 W/m² | - |
| 1788272804 | 18.33° C | 74% | 1019.4 hPa | 0 mm | - | 114 W/m² | - |
| 1788272502 | 18.33° C | 75% | 1019.3 hPa | 0 mm | - | 99 W/m² | - |
| 1788271897 | 17.78° C | 76% | 1019.2 hPa | 0 mm | - | 71 W/m² | - |
| 1788271596 | 17.78° C | 77% | 1019.2 hPa | 0 mm | - | 60 W/m² | - |
| 1788271290 | 17.78° C | 79% | 1018.7 hPa | 0 mm | - | 50 W/m² | - |
| 1788270985 | 17.78° C | 81% | 1018.8 hPa | 0 mm | - | 44 W/m² | - |
| 1788270686 | 17.22° C | 82% | 1018.5 hPa | 0 mm | - | 36 W/m² | - |
| 1788270376 | 17.22° C | 83% | 1018.6 hPa | 0 mm | - | 30 W/m² | - |
| 1788270070 | 17.22° C | 83% | 1018.6 hPa | 0 mm | - | 23 W/m² | - |
| 1788269769 | 16.67° C | 84% | 1018.4 hPa | 0 mm | - | 16 W/m² | - |
| 1788269468 | 16.67° C | 84% | 1018.4 hPa | 0 mm | - | 11 W/m² | - |
| 1788269163 | 16.67° C | 84% | 1018.3 hPa | 0 mm | - | 7 W/m² | - |
| 1788268857 | 16.67° C | 84% | 1018.4 hPa | 0 mm | - | 4 W/m² | - |
| 1788268557 | 16.67° C | 84% | 1018.3 hPa | 0 mm | - | 2 W/m² | - |
| 1788268252 | 16.67° C | 85% | 1018.2 hPa | 0 mm | - | 1 W/m² | - |
| 1788267946 | 16.67° C | 84% | 1018.2 hPa | 0 mm | - | 0 W/m² | - |
| 1788267645 | 17.22° C | 84% | 1018.4 hPa | 0 mm | - | 0 W/m² | - |
| 1788267349 | 17.22° C | 83% | 1018.2 hPa | 0 mm | - | 0 W/m² | - |
| 1788267039 | 17.22° C | 83% | 1018.3 hPa | 0 mm | - | 0 W/m² | - |
| 1788266738 | 17.22° C | 83% | 1018.3 hPa | 0 mm | - | 0 W/m² | - |
| 1788266433 | 17.22° C | 82% | 1018.3 hPa | 0 mm | - | 0 W/m² | - |
| 1788266122 | 17.22° C | 82% | 1018.3 hPa | 0 mm | - | 0 W/m² | - |
| 1788265822 | 17.22° C | 82% | 1018.6 hPa | 0 mm | - | 0 W/m² | - |
* Rain latest hour (hover to see other rain measurements)
** Current wind speed in m/s (hover to see current wind gust speed)